www.pogodaiklimat.ru
ПОГОДА на Влиланде
Время
(UTC), дата
13 10.02
14 10.02
15 10.02
16 10.02
17 10.02
18 10.02
19 10.02
20 10.02
21 10.02
22 10.02
23 10.02
00 11.02
01 11.02
02 11.02
03 11.02
04 11.02
05 11.02
06 11.02
07 11.02
08 11.02
09 11.02
10 11.02
11 11.02
12 11.02
13 11.02
14 11.02
15 11.02
16 11.02
17 11.02
18 11.02
19 11.02
20 11.02
21 11.02
22 11.02
23 11.02
00 12.02
01 12.02
02 12.02
03 12.02
04 12.02
05 12.02
06 12.02
07 12.02
08 12.02
09 12.02
10 12.02
11 12.02
12 12.02
13 12.02
14 12.02
15 12.02
16 12.02
17 12.02
18 12.02
19 12.02
20 12.02
21 12.02
22 12.02
23 12.02
00 13.02
01 13.02
02 13.02
03 13.02
04 13.02
05 13.02
06 13.02
07 13.02
08 13.02
09 13.02
10 13.02
11 13.02
12 13.02
13 13.02
14 13.02
15 13.02
16 13.02
17 13.02
18 13.02
19 13.02
20 13.02
21 13.02
22 13.02
23 13.02
00 14.02
01 14.02
02 14.02
03 14.02
04 14.02
05 14.02
06 14.02
07 14.02
08 14.02
09 14.02
10 14.02
11 14.02
12 14.02
13 14.02
14 14.02
15 14.02
16 14.02
17 14.02
18 14.02
19 14.02
20 14.02
21 14.02
22 14.02
23 14.02
00 15.02
01 15.02
02 15.02
03 15.02
04 15.02
05 15.02
06 15.02
07 15.02
08 15.02
09 15.02
10 15.02
11 15.02
12 15.02
13 15.02
14 15.02
15 15.02
16 15.02
17 15.02
18 15.02
19 15.02
20 15.02
21 15.02
22 15.02
23 15.02
00 16.02
01 16.02
02 16.02
03 16.02
04 16.02
05 16.02
06 16.02
07 16.02
08 16.02
09 16.02
10 16.02
11 16.02
12 16.02
13 16.02
14 16.02
15 16.02
16 16.02
17 16.02
18 16.02
19 16.02
20 16.02
21 16.02
22 16.02
23 16.02
00 17.02
01 17.02
02 17.02
03 17.02
04 17.02
05 17.02
06 17.02
07 17.02
08 17.02
09 17.02
10 17.02
11 17.02
12 17.02
Ветер
(напр.,м/с)
Видим. Явления Облачность Т
(С)
Тd
(С)
f
(%)
Тe
(С)
Тes
(С)
Комфортность P
(гПа)
Po
(гПа)
Тmin
(С)
Tmax
(С)
R
(мм)
R24
(мм)
S
(см)
З 20-25
{25}
9000 м дым 8/8 1000 м
[]
+7.7 +1.8 66 +1 +1 993.1 991.9
З 20-25
{25}
9000 м дым 9/9 1000 м
[]
+7.4 +1.2 65 0 0 992.9 991.8
З 17-20
{25}
7000 м дым 10 баллов +7.6 +1.7 66 +1 +1 992.8 991.5
ЮЗ 14-16
{19}
7000 м дым 10/10
[]
+7.6 +2.7 71 +2 +2 991.7 990.6
ЮЗ 12-15
{16}
10 км 10/10
[]
+7.6 +3.0 73 +2 +2 990.3 989.1
ЮЗ 12-16
{25}
10 км слаб. ливневой дождь {морось} 10 баллов +4.7 +1.4 79 -2 -2 989.5 988.3 +7.9
З 12-16
{16}
7000 м слаб. дождь 9/9 1000 м
[]
+4.5 +2.9 89 -3 -3 989.4 988.0
З 10-13
{19}
9000 м в посл. час дождь {ливн. осадки} 10/10 1500 м
[]
+4.6 +2.6 87 -2 -2 988.5 987.1
З 17-20
{22}
10 км {ливн. осадки, дождь} 9 баллов +5.5 +1.8 77 -2 -2 988.6 987.3
З 18-23
{25}
11 км {ливн. осадки, дождь} 10/8 600 м
[]
+5.6 +1.5 75 -2 -2 989.4 988.1
З 19-25
{25}
11 км в посл. час осадки {ливн. осадки} 9/6 600 м
[]
+5.6 +0.4 69 -2 -2 990.1 988.8
З 21-24
{25}
9000 м в посл. час дождь {ливн. осадки} 9 баллов +5.4 +1.2 74 -3 -3 990.7 989.3
З 21-25
{25}
10 км 10/9 1000 м
[]
+5.6 +0.6 70 -2 -2 991.2 989.9
З 22-26
{26}
8000 м дым 10/10 1000 м
[]
+5.6 +1.1 73 -3 -3 991.4 990.1
З 21-25
{26}
8000 м дым 10 баллов +5.9 +1.3 72 -2 -2 991.8 990.4
З 21-26
{27}
8000 м дым 10/10 1000 м
[]
+5.9 +1.0 71 -2 -2 992.3 991.0
З 21-25
{27}
8000 м дым 10/10 1000 м
[]
+6.1 +1.2 71 -2 -2 992.7 991.4
З 21-25
{27}
8000 м дым 10 баллов +6.0 +0.8 69 -2 -2 993.3 992.0 +3.6
З 21-25
{25}
7000 м дым 10/8 1000 м
[]
+6.0 +1.1 71 -2 -2 994.2 992.8
З 20-25
{26}
5000 м слаб. ливневой дождь {морось} 10/8 1000 м
[]
+4.9 +1.9 81 -4 -4 994.5 993.1
З 20-24
{26}
7000 м в посл. час дождь {ливн. осадки} 10 баллов +6.1 +1.3 71 -2 -2 995.3 993.8
З 20-25
{25}
6000 м морось {ливн. осадки, дымка} 10/6 600 м
[]
+5.5 +1.9 78 -3 -3 995.9 994.4
З 20-25
{27}
8000 м слаб. морось {дождь} 9/6 1000 м
[]
+5.6 +1.2 73 -2 -2 996.6 995.2
З 21-25
{27}
8000 м в посл. час морось {ливн. осадки, дождь} 10 баллов +5.9 +1.0 71 -2 -2 997.2 995.9
З 20-24
{27}
9000 м дым 9/6 1000 м
[]
+6.0 +0.1 66 -2 -2 997.8 996.4
З 19-24
{26}
10 км 9/6 1000 м
[]
+6.1 +0.8 69 -1 -1 998.5 997.2
З 21-24
{27}
10 км в посл. час осадки {ливн. осадки} 10 баллов +5.8 +0.2 67 -2 -2 998.9 997.6
З 19-23
{27}
7000 м слаб. ливневой дождь 10/10
[]
+4.9 +1.5 79 -3 -3 999.6 998.2
З 21-25
{25}
9000 м слаб. морось {дымка} 10/6 1000 м
[]
+5.4 +0.1 69 -3 -3 1000.0 998.6
З 22-26
{27}
7000 м слаб. морось {дымка} 10 баллов +5.4 +1.2 74 -3 -3 1000.3 998.9 +6.7
З 21-26
{27}
9000 м в посл. час осадки {ливн. осадки} 8/6 1000 м
[]
+5.7 -0.1 66 -2 -2 1000.8 999.5
З 19-23
{26}
9000 м в посл. час осадки {ливн. осадки, морось} 9/9 1500 м
[]
+6.1 -0.3 64 -1 -1 1001.1 999.8
З 20-24
{27}
9000 м дым {ливн. осадки, морось} 9 баллов +6.0 -0.6 63 -2 -2 1001.5 1000.0
З 20-24
{25}
9000 м в посл. час осадки {ливн. осадки, дымка} 9/9 1500 м
[]
+5.6 +0.4 69 -2 -2 1002.0 1000.5
З 18-24
{25}
8000 м ливневой дождь 10/10 1500 м
[]
+5.5 +0.3 69 -2 -2 1002.2 1000.9
З 20-25
{27}
9000 м в посл. час осадки {ливн. осадки, дымка} 10 баллов +5.6 -0.1 67 -2 -2 1002.5 1001.1
З 20-23
{26}
10 км 10/8 1000 м
[]
+5.6 +0.5 70 -2 -2 1002.7 1001.4
З 19-22
{25}
9000 м в посл. час осадки 10/8 1000 м
[]
+5.4 +0.6 71 -2 -2 1002.7 1001.3
З 21-24
{26}
9000 м дым {ливн. осадки} 10 баллов +5.4 +0.7 72 -3 -3 1002.8 1001.5
З 20-24
{25}
9000 м дым {ливн. осадки} 9/8 1000 м
[]
+5.6 +0.5 70 -2 -2 1003.2 1001.8
З 19-24
{24}
9000 м дым {ливн. осадки} 9/9 1000 м
[]
+5.5 +0.7 71 -2 -2 1003.6 1002.2
З 20-23
{26}
8000 м дым {ливн. осадки} 10 баллов +5.5 +0.3 69 -2 -2 1004.2 1002.8 +4.7
З 18-23
{24}
9000 м дым 10/10 1000 м
[]
+5.6 +0.4 69 -2 -2 1004.9 1003.5
З 17-22
{23}
8000 м дым 9/9 1000 м
[]
+5.5 +0.4 70 -2 -2 1005.5 1004.3
З 18-23
{24}
8000 м дым 9 баллов +5.6 +0.4 69 -2 -2 1006.7 1005.2
З 17-21
{21}
9000 м дым 10/9 1000 м
[]
+5.8 +0.7 70 -2 -2 1007.2 1006.0
З 17-21
{21}
8000 м дым 10/9 1000 м
[]
+5.8 +0.7 70 -2 -2 1008.2 1006.9
З 16-19
{24}
10 км 9 баллов +5.9 +0.7 69 -1 -1 1008.8 1007.5
З 15-17
{19}
11 км 9/9 1000 м
[]
+6.1 +1.0 70 -1 -1 1009.1 1007.8
З 15-18
{18}
10 км 8/8 1000 м
[]
+6.7 +1.6 70 0 0 1009.4 1008.1
З 16-19
{19}
11 км 8 баллов +6.1 +1.4 72 -1 -1 1009.9 1008.5
З 15-17
{18}
11 км 10/9 1000 м
[]
+5.9 +1.4 73 -1 -1 1010.6 1009.3
З 15-18
{19}
11 км 8/8 1000 м
[]
+5.8 +1.2 72 -1 -1 1011.2 1009.8
З 15-17
{19}
10 км 9 баллов +6.0 +1.2 71 -1 -1 1011.7 1010.3 +6.8
З 14-16
{18}
11 км 9/8 1000 м
[]
+6.2 +1.1 70 -0 -0 1011.8 1010.4
З 13-17
{17}
10 км 8/6 1000 м
[]
+6.3 +0.8 68 0 0 1011.8 1010.4
З 12-15
{18}
10 км 9 баллов +6.4 +0.6 66 0 0 1011.8 1010.5
З 12-14
{15}
11 км в посл. час осадки {ливн. осадки} 6/6 1000 м
[]
+6.3 +0.5 66 0 0 1011.7 1010.4
З 12-14
{15}
12 км {ливн. осадки, дымка} 9/9 1000 м
[]
+6.3 +0.6 67 0 0 1011.5 1010.3
З 9-11
{18}
11 км {ливн. осадки, дымка} 10 баллов +6.1 +1.0 70 +1 +1 1011.2 1009.9
ЮЗ 7-8
{10}
12 км 9/8
[]
+5.6 +1.3 74 +1 +1 1010.7 1009.4
Ю 5-6
{9}
21 км 10/10
[]
+4.8 +1.3 78 0 0 1009.8 1008.6
Ю 8-10
{11}
12 км 10 баллов +4.6 +3.0 89 -2 -2 1008.6 1007.4
Ю 7-9
{9}
13 км слаб. морось с дождем {дымка} 9/9 1500 м
[]
+4.7 +3.5 92 -1 -1 1007.5 1006.3
Ю 9-11
{11}
17 км в посл. час дождь {ливн. осадки, морось} 10/10 1000 м
[]
+4.5 +3.1 91 -2 -2 1005.7 1004.5
Ю 11-13
{13}
21 км {ливн. осадки, морось} 10 баллов +4.5 +2.7 88 -2 -2 1003.9 1002.8 +4.2
Ю 10-13
{14}
23 км 10/10
[]
+4.4 +2.6 88 -2 -2 1002.2 1001.0
Ю 11-13
{14}
20 км слаб. ливневой дождь {морось} 10/6 1500 м
[]
+4.4 +2.9 90 -3 -3 1000.9 999.7
Ю 12-15
{15}
11 км слаб. дождь {морось} 10 баллов +4.3 +3.3 93 -3 -3 999.0 997.9
ЮВ 16-20
{20}
8000 м слаб. ливневой дождь 10/8 300 м
[]
+3.7 +2.8 94 -5 -5 996.3 995.1
ЮВ 16-19
{20}
4900 м ливневой дождь 10/10 300 м
[]
+3.6 +2.8 94 -5 -5 995.0 993.7
Ю 13-16
{20}
6000 м ливневой дождь 10 баллов +4.1 +3.4 95 -4 -4 993.8 992.5
Ю 11-13
{16}
17 км слаб. ливневой дождь {морось} 10/6 300 м
[]
+4.9 +4.3 96 -2 -2 992.7 991.4
ЮЗ 9-10
{13}
12 км в посл. час дождь {ливн. осадки, морось} 10/6 300 м
[]
+7.1 +6.2 94 +2 +2 992.8 991.5
ЮЗ 9-11
{16}
4200 м ливневой дождь {морось} 10 баллов +6.8 +5.9 94 +1 +1 992.7 991.5
ЮЗ 9-12
{12}
10 км слаб. морось {дождь} 9/9 2000 м
[]
+6.7 +5.7 93 +1 +1 993.1 991.7
ЮЗ 6-7
{9}
14 км в посл. час дождь {ливн. осадки, морось} 10/8 600 м
[]
+6.3 +5.5 95 +1 +1 994.1 992.7
ЮЗ 3-4
{16}
6000 м слаб. морось {дождь} 10 баллов +6.1 +5.6 97 +3 +3 995.4 994.1 +7.2
ЮЗ 2-2
{5}
8000 м в посл. час дождь {морось} 8/8 600 м
[]
+5.6 +5.4 99 +3 +3 996.4 995.0
СЗ 4-4
{4}
7000 м дымка {дождь} 9/9 1000 м
[]
+6.2 +5.6 96 +2 +2 998.5 997.1
З 6-7
{7}
7000 м дымка 9 баллов +6.5 +5.8 95 +2 +2 1000.0 998.5
З 6-7
{8}
9000 м дымка 6/6 600 м
[]
+6.1 +5.0 93 +1 +1 1001.7 1000.3
СЗ 5-7
{7}
8000 м дымка {дождь} 8/8 1000 м
[]
+6.3 +5.4 94 +2 +2 1003.0 1001.6
З 5-6
{8}
11 км {морось, дымка} 1 балл +5.9 +4.4 90 +1 +1 1004.4 1003.0
З 5-6
{7}
12 км 10/10 1000 м
[]
+6.2 +4.2 87 +2 +2 1006.1 1004.7
СЗ 4-5
{7}
9000 м дымка 10/10 600 м
[]
+6.3 +5.3 93 +2 +2 1007.4 1006.0
СЗ 4-5
{7}
8000 м дымка 10 баллов +6.4 +5.6 95 +2 +2 1008.6 1007.2
С 7-9
{9}
12 км 10/6 600 м
[]
+6.3 +5.3 93 +1 +1 1010.4 1009.0
С 8-10
{11}
20 км 10/10 600 м
[]
+5.8 +4.1 89 0 0 1012.2 1010.7
С 8-10
{11}
26 км 10 баллов +5.7 +2.8 82 0 0 1013.5 1012.1 +5.4
С 4-6
{9}
20 км 10/10 600 м
[]
+6.0 +2.7 79 +2 +2 1015.4 1014.0
С 3-6
{7}
45 км 10/10 600 м
[]
+5.9 +2.0 76 +3 +3 1016.3 1014.8
З 2-2
{10}
29 км 10 баллов +6.6 +2.0 72 +5 +5 1017.4 1016.1
ЮЗ 2-3
{4}
45 км 10/10 600 м
[]
+6.9 +1.5 68 +5 +5 1018.3 1017.0
ЮЗ 4-6
{6}
45 км 10/10 600 м
[]
+7.1 +2.2 71 +4 +4 1018.6 1017.3
ЮЗ 7-8
{10}
45 км 10 баллов +7.4 +2.7 72 +3 +3 1018.9 1017.6
ЮЗ 8-10
{11}
45 км 10/10 600 м
[]
+7.4 +3.0 74 +3 +3 1018.6 1017.3
ЮЗ 8-11
{12}
40 км 10/10 600 м
[]
+7.3 +3.1 75 +2 +2 1018.5 1017.1
ЮЗ 9-12
{12}
45 км 10 баллов +7.3 +3.4 76 +2 +2 1018.1 1016.9
Ю 10-13
{13}
45 км 10/10
[]
+6.8 +3.6 80 +1 +1 1018.4 1017.2
Ю 10-12
{13}
40 км 10/10
[]
+6.6 +3.9 83 +1 +1 1018.4 1017.2
Ю 11-13
{14}
28 км 10 баллов +7.0 +4.4 84 +1 +1 1017.9 1016.6 +7.8
Ю 11-14
{14}
30 км 10/8
[]
+7.6 +4.7 82 +2 +2 1017.9 1016.7
Ю 11-13
{15}
20 км 10/10 300 м
[]
+7.8 +5.2 84 +2 +2 1017.6 1016.3
ЮЗ 13-17
{17}
11 км 10 баллов +7.9 +6.0 88 +2 +2 1017.0 1015.5
ЮЗ 13-16
{16}
12 км 10/10 600 м
[]
+8.3 +6.1 86 +2 +2 1017.1 1015.8
ЮЗ 11-14
{16}
15 км 10/10 600 м
[]
+8.2 +5.8 85 +3 +3 1016.9 1015.6
ЮЗ 11-15
{17}
15 км 10 баллов +8.6 +5.9 83 +3 +3 1016.5 1015.2
ЮЗ 12-16
{16}
13 км 10/10 600 м
[]
+8.6 +6.1 84 +3 +3 1015.7 1014.4
ЮЗ 12-15
{15}
13 км 10/10 1000 м
[]
+8.4 +6.1 85 +3 +3 1015.4 1014.0
Ю 11-13
{16}
12 км 10 баллов +8.3 +6.1 86 +3 +3 1014.7 1013.4
ЮЗ 11-13
{16}
5000 м в посл. час дождь 10/8 300 м
[]
+7.7 +6.6 93 +2 +2 1014.3 1013.0
Ю 12-14
{15}
4500 м ливневой дождь 10/6 200 м
[]
+7.4 +6.8 96 +1 +1 1014.0 1012.6
ЮЗ 11-14
{16}
10 км слаб. морось {дождь} 10 баллов +7.8 +7.0 95 +2 +2 1014.0 1012.6 +6.9
Ю 12-14
{15}
11 км в посл. час дождь {ливн. осадки, морось} 10/10 300 м
[]
+7.9 +6.9 93 +2 +2 1013.4 1012.2
Ю 12-15
{15}
4000 м слаб. ливневой дождь {морось} 10/9 200 м
[]
+7.9 +7.4 97 +2 +2 1013.4 1012.1
Ю 12-16
{16}
3300 м слаб. ливневой дождь {морось} 10 баллов +8.6 +8.1 97 +3 +3 1012.8 1011.5
Ю 14-18
{18}
13 км в посл. час дождь {ливн. осадки, морось} 10/10 300 м
[]
+9.4 +7.9 90 +4 +4 1011.6 1010.5
Ю 12-18
{18}
17 км {ливн. осадки, морось} 10/10 600 м
[]
+10.2 +8.3 88 +5 +5 1011.2 1010.0
ЮЗ 16-21
{21}
17 км {ливн. осадки, морось} 10 баллов +10.5 +8.1 85 +5 +5 1010.3 1009.0
Ю 15-19
{19}
17 км 10/10 1500 м
[]
+10.1 +7.7 85 +5 +5 1009.4 1008.2
Ю 15-19
{20}
21 км 10/10 1500 м
[]
+10.6 +7.2 79 +6 +6 1008.2 1006.9
Ю 14-19
{21}
28 км 10 баллов +11.3 +7.0 75 +7 +7 1007.3 1006.0
Ю 17-22
{22}
23 км 10/9 600 м
[]
+11.2 +7.6 78 +6 +6 1006.0 1004.8
Ю 17-21
{23}
9000 м слаб. ливневой дождь 10/10 2000 м
[]
+10.7 +8.1 84 +5 +5 1004.5 1003.5
Ю 17-22
{24}
11 км морось с дождем {ливн. осадки} 10 баллов +10.9 +8.0 82 +6 +6 1003.7 1002.6 +11.5
Ю 14-18
{22}
26 км в посл. час дождь 10/9 1000 м
[]
+10.3 +7.7 84 +5 +5 1001.9 1000.6
Ю 18-23
{23}
26 км в посл. час дождь {ливн. осадки} 10/10 1000 м
[]
+11.1 +7.6 79 +6 +6 1000.5 999.2
Ю 22-27
{28}
20 км {ливн. осадки, дождь} 10 баллов +12.2 +7.5 73 +7 +7 999.0 998.0
Ю 21-28
{30}
7000 м дым {ливн. осадки, дождь} 10/8 600 м
[]
+11.0 +7.8 81 +5 +5 998.4 997.2
ЮЗ 21-27
{28}
9000 м в посл. час дождь {ливн. осадки} 10/6 300 м
[]
+10.1 +8.5 90 +4 +4 998.6 997.2
ЮЗ 20-26
{30}
6000 м слаб. ливневой дождь 10 баллов +10.3 +9.3 94 +4 +4 998.5 997.4
ЮЗ 19-25
{27}
7000 м в посл. час дождь {ливн. осадки} 10/10 300 м
[]
+10.5 +9.4 93 +5 +5 998.4 997.1
Ю 19-25
{26}
4600 м слаб. ливневой дождь 10/10 200 м
[]
+10.2 +9.4 95 +4 +4 997.3 996.2
Ю 22-26
{27}
14 км в посл. час дождь {ливн. осадки} 10 баллов +11.3 +9.3 87 +6 +6 995.4 994.5
Ю 22-29
{29}
19 км {ливн. осадки} 10/10 600 м
[]
+12.6 +9.0 79 +8 +8 993.9 992.9
ЮЗ 23-33
{33}
16 км {ливн. осадки} 10/10 300 м
[]
+12.3 +9.1 81 +7 +7 993.5 992.1
ЮЗ 22-29
{33}
17 км {ливн. осадки} 10 баллов +11.8 +9.2 84 +6 +6 992.8 991.6 +9.9
Ю 23-27
{30}
11 км слаб. ливневой дождь {морось} 10/10 300 м
[]
+11.8 +9.8 88 +6 +6 991.9 990.7
ЮЗ 22-27
{29}
11 км слаб. морось с дождем 10/10 300 м
[]
+11.4 +10.4 94 +6 +6 991.5 990.3
ЮЗ 21-26
{30}
4800 м дождь {ливн. осадки, морось} 10 баллов +10.8 +10.5 98 +5 +5 991.5 990.3
ЮЗ 22-30
{30}
4700 м дождь {ливн. осадки, морось} 10/6 300 м
[]
+11.2 +10.8 97 +5 +5 992.0 990.7
ЮЗ 17-20
{28}
3400 м дождь {ливн. осадки, морось} 10/6 300 м
[]
+10.4 +10.2 99 +5 +5 999.7 997.1
ЮЗ 16-20
{30}
7000 м морось {ливн. осадки, дождь} 10 баллов +10.5 +9.3 92 +5 +5 997.4 996.4
ЮЗ 12-15
{22}
6000 м слаб. морось {дождь} 10/6 600 м
[]
+9.9 +8.6 92 +5 +5 993.8 992.6
ЮЗ 10-12
{14}
2900 м сильн. морось {дождь} 10/9 1000 м
[]
+8.6 +8.3 98 +3 +3 994.5 993.4
ЮЗ 9-11
{22}
3000 м морось с дождем 10 баллов +8.3 +8.2 99 +3 +3 994.3 993.1
З 12-15
{15}
4700 м слаб. дождь {морось} 10/8 600 м
[]
+8.0 +7.8 99 +2 +2 994.0 992.8
З 12-14
{18}
6000 м морось с дождем 10/10 1500 м
[]
+7.7 +6.7 93 +2 +2 993.3 992.2
ЮЗ 12-14
{22}
13 км слаб. дождь {морось} 10 баллов +7.5 +6.2 91 +1 +1 993.4 992.0 +12.2
ЮЗ 16-19
{19}
16 км в посл. час дождь {морось} 10/6 300 м
[]
+7.9 +6.6 91 +1 +1 994.5 993.3
ЮЗ 17-21
{22}
11 км 10/10
[]
+7.9 +5.1 82 +1 +1 995.3 994.1
З 18-21
{22}
11 км 10 баллов +7.9 +4.4 79 +1 +1 996.4 995.0
ЮЗ 16-19
{21}
10 км 8/8
[]
+7.7 +4.4 80 +1 +1 997.4 996.1
ЮЗ 17-20
{20}
11 км 1/1 600 м
[]
+7.8 +4.3 79 +1 +1 998.1 996.7
ЮЗ 18-21
{22}
11 км {морось, дымка} 6 баллов +7.9 +3.6 74 +1 +1 998.8 997.5
З 21-24
{25}
9000 м дым 9/9 1000 м
[]
+7.6 +2.6 71 +1 +1 999.8 998.4
З 19-23
{26}
10 км ясно +7.4 +2.3 70 +1 +1 1001.2 999.8
ЮЗ 18-22
{26}
9000 м дым ясно +7.0 +2.7 74 0 0 1002.6 1001.2
ЮЗ 19-24
{24}
9000 м дым ясно +7.2 +2.4 72 0 0 1003.1 1001.7
ЮЗ 19-23
{23}
10 км ясно +7.1 +2.3 71 0 0 1003.1 1001.9
ЮЗ 18-21
{26}
10 км ясно +7.2 +2.6 73 0 0 1003.4 1002.0 +6.9
ЮЗ 18-21
{23}
9000 м дым ясно +7.6 +2.8 72 +1 +1 1004.0 1002.5
ЮЗ 16-19
{21}
10 км 1/1 600 м
[]
+7.8 +3.3 73 +1 +1 1004.6 1003.2
ЮЗ 15-18
{23}
8000 м дым 10 баллов +8.2 +4.6 78 +2 +2 1005.2 1003.8
ЮЗ 14-18
{22}
8000 м дым 8/8 1000 м
[]
+8.8 +5.2 78 +3 +3 1005.2 1004.0
ЮЗ 13-16
{19}
7000 м дым 1/1 600 м
[]
+8.8 +6.0 83 +3 +3 1005.6 1004.2
ЮЗ 16-19
{23}
16 км {дымка} 3 балла +8.3 +4.2 75 +2 +2 1005.2 1003.9
Местоположение метеостанции Влиланд (Нидерланды): широта 53.25 долгота 4.92 высота над уровнем моря 10 м.
В архиве по умолчанию представлена погода на Влиланде за последнюю неделю. Архивные данные за месяц целиком и за предыдущие месяцы, начиная с января 2011 года, Вы можете получить, выбрав интересующий диапазон дат из раскрывающегося списка и нажав кнопку "Найти!".
*Определитесь, кто Вы:
Внимание! Время в таблицах - всемирное. Для получения местного времени необходимо прибавить поправку, которая равна 1 ч.
Смотрите также архив погоды в соседних городах и на ближайших метеорологических станциях:
Партнеры нашего сайта:      
Пояснения к столбцам:
  • Ветер - указаны скорость ветра в м/с - средняя за 10 мин, порывы в срок и между сроками (в фигурных скобках) и направление, откуда дует ветер: С - северный,
  • СВ - северо-восточный, В - восточный, ЮВ - юго-восточный, Ю - южный, ЮЗ - юго-западный, З - западный, СЗ - северо-западный.
  • Видимость - горизонтальная дальность видимости в метрах или километрах. При видимости от 1 до 10 км при отсутствии осадков обычно наблюдается дымка, при ухудшении видимости до 1 км и менее - туман. В сухую погоду видимость может ухудшаться дымом, пылью или мглою.
  • Явления - указаны атмосферные явления, наблюдавшиеся в срок или в последний час перед сроком; фигурными скобками обозначены явления, наблюдавшиеся между сроками (за 1-3 часа до срока); квадратными скобками обозначены град или гололедные отложения с указанием их диаметра в мм.
  • Облачность - указаны через наклонную черту общая и нижняя облачность в баллах и высота нижней границы облаков в метрах; квадратными скобками обозначены формы облаков: Ci - перистые, Cs - перисто-слоистые, Cc - перисто-кучевые, Ac - высококучевые, As - высокослоистые, Sc - слоисто-кучевые, Ns - слоисто-дождевые, Cu - кучевые, Cb - кучево-дождевые. Подробнее классификацию облаков см. в Атласе облаков (PDF).
  • T - Температура воздуха - температура, измеренная на высоте 2 м над землей.
  • Td - Температура точки росы - температура, при понижении до которой содержащийся в воздухе водяной пар достигнет насыщения.
  • f - Относительная влажность воздуха - влажноcть воздуха, измеренная на высоте 2 м над землей.
  • Te - Эффективная температура - температура, которую ощущает одетый по сезону человек в тени. Характеристика душности погоды. При расчете учитывается влияние влажности воздуха и скорости ветра на теплоощущения человека.
  • Tes - Эффективная температура на солнце - температура, которую ощущает человек, с поправкой на солнечный нагрев. Характеристика знойности погоды. Зависит от высоты солнца над горизонтом, облачности и скорости ветра. Ночью, в пасмурную погоду, а также при ветре 12 м/с и более поправка равна нулю.
  • P - Атмосферное давление - приведенное к уровню моря атмосферное давление.
  • Po - Атмосферное давление - измеренное на уровне метеостанции атмосферное давление.
  • Tmin - Минимальная температура - минимум температуры воздуха на высоте 2 м над землей.
  • Tmax - Максимальная температура - максимум температуры воздуха на высоте 2 м над землей.
  • R - Количество осадков - Количество выпавших осадков за период времени, мм. При наведении курсора мыши на число - период времени, за который выпало указанное количество осадков.
  • R24 - Количество осадков - Количество выпавших осадков за 24 часа, мм.
  • S - Снежный покров - Высота снежного покрова, см. При наведении курсора мыши на число - состояние снежного покрова и степень покрытия местности в баллах.